Regional Weather Roundup
Issued by NWS

Home | Current Version | Previous Version | Graphics & Text | Print | Product List | Glossary On
Versions: 1 2 3 4 5 6 7 8 9 10 11 12 13 14 15 16 17 18 19 20 21 22 23 24 25 26 27
000
ASUS45 KBOU 261507
RWRCO

WEATHER ROUNDUP FOR COLORADO
NATIONAL WEATHER SERVICE DENVER/BOULDER CO
900 AM MDT THU MAY 26 2016

NOTE: "FAIR" INDICATES FEW OR NO CLOUDS BELOW 12000 FEET WITH NO
SIGNIFICANT WEATHER AND/OR OBSTRUCTIONS TO VISIBILITY.

COZ001>005-013-030-031-261600-
...NORTHWEST COLORADO...

CITY           SKY/WX    TMP DP  RH WIND       PRES   REMARKS
CRAIG          FAIR      46  33  60 NE3       30.03F
HAYDEN         FAIR      48  27  43 CALM      30.02F
MEEKER         FAIR      46  31  55 S5        30.01F
MOUNT WERNER   NOT AVBL
STEAMBOAT SPGS FAIR      45  29  54 CALM      30.02F
WALDEN         FAIR      43  28  56 NW3       30.09F
$$

COZ006>008-011-261600-
...WEST CENTRAL VALLEYS...

CITY           SKY/WX    TMP DP  RH WIND       PRES   REMARKS
GRAND JUNCTION FAIR      60  28  29 SE5       29.91S
MONTROSE       FAIR      59  25  27 SE6       29.96F
EAGLE          SUNNY     45  19  36 CALM      30.06F
RIFLE          FAIR      52  28  39 CALM      29.96F
DELTA          FAIR      61  22  22 CALM      29.95S
NUCLA          FAIR      61  23  23 NW6       29.98F
$$

COZ017>023-064>068-261600-
...SOUTHWEST COLORADO...

CITY           SKY/WX    TMP DP  RH WIND       PRES   REMARKS
DURANGO        PTSUNNY   53  27  36 W9        30.03F
CORTEZ         FAIR      56  28  34 E15G26    29.98S
PAGOSA SPRINGS FAIR      52  23  32 CALM      30.05F
TELLURIDE      FAIR      47  22  36 E6        30.10F
WOLF CREEK PAS FAIR      34  19  55 SW7       30.22F WCI  28
$$

COZ009-010-012-014-032>034-037-058>063-261600-
...CENTRAL COLORADO...

CITY           SKY/WX    TMP DP  RH WIND       PRES   REMARKS
ASPEN          FAIR      52  23  32 N5        30.01F
BUENA VISTA    FAIR      50  16  25 CALM      30.06F
COPPER MTN     NOT AVBL
BERTHOUD PASS  FAIR      30  19  64 SE18G24   30.22F WCI  18
COTTONWOOD PAS PTSUNNY   50  12  22 E3        30.13F
GUNNISON       FAIR      46  25  42 CALM      30.08F
KREMMLING      FAIR      41  21  45 CALM      30.08F
LEADVILLE      PTSUNNY   40  12  32 NW3       30.11F
MONARCH PASS   FAIR      36  19  51 NE13      30.30F
SALIDA         FAIR      46  16  30 CALM      30.13F
SUNLIGHT       FAIR      41  18  38 CALM      30.18S
WILKERSON PASS CLOUDY    41  28  60 CALM      30.21F
$$

COZ069>075-261600-
...SAN LUIS VALLEY/SANGRE DE CRISTO MOUNTAINS...

CITY           SKY/WX    TMP DP  RH WIND       PRES   REMARKS
ALAMOSA        FAIR      55  28  35 VRB6      30.03F
LA VETA PASS   FAIR      48  30  49 N7        30.14S
SAGUACHE       PTSUNNY   54  21  28 NW6       30.04F
$$

COZ035-036-038>040-261600-
...NORTHERN COLORADO FRONT RANGE...

CITY           SKY/WX    TMP DP  RH WIND       PRES   REMARKS
DENVER INTL AP PTSUNNY   59  42  53 NE3       29.99S
DMNS CITY PARK   N/A     61  39  44 E7G16     29.98S
AURORA         PTSUNNY   56  44  63 NE3       30.00F
FRONT RANGE AP CLOUDY    55  43  62 SW3       30.00F
ERIE MUNI ARPT FAIR      59  44  57 CALM      29.97F
BOULDER MUN AP FAIR      61  37  41 SE3       29.97F
CENTENNIAL     PTSUNNY   56  38  50 E5        30.00S
BROOMFIELD     PTSUNNY   59  36  41 CALM      30.00F
FORT COLLINS   FAIR      55  43  62 NE3       29.98F
LONGMONT       FAIR      62  45  54 SE3       29.99F
$$

COZ041-046-047-076>085-087-088-261600-
...PIKES PEAK/PALMER DIVIDE AND SOUTHERN FOOTHILLS...

CITY           SKY/WX    TMP DP  RH WIND       PRES   REMARKS
COLO. SPRINGS  PTSUNNY   57  44  62 E12       30.02S
A. F. ACADEMY  FAIR      57  39  51 VRB3      30.01F
SCHRIEVER AFB  NOT AVBL
ELLICOTT       CLOUDY   N/A N/A N/A E6        30.00S
FALCON         CLOUDY    53  43  69 NE8       30.04F
FORT CARSON    FAIR      58  46  64 E12       29.99F
LIMON          CLOUDY    60  45  57 NE9       29.98F
MONUMENT HILL  CLOUDY    50  37  62 N3        30.06S
TRINIDAD       LGT RAIN  56  39  53 VRB5      29.98F
$$

COZ042>045-048>051-090-091-261600-
...NORTHEAST COLORADO...

CITY           SKY/WX    TMP DP  RH WIND       PRES   REMARKS
GREELEY ARPT   FAIR      57  45  62 CALM      29.99S
AKRON          PTSUNNY   62  43  49 N7        29.96F
BURLINGTON     FAIR      66  50  56 E12       29.91F
WRAY           PTSUNNY   66  46  48 N6        29.93S
STERLING       FAIR      59  46  63 CALM      29.94F
HOLYOKE        NOT AVBL
FORT MORGAN    CLOUDY    62  41  46 N7        29.96F
$$

COZ086-089-092>099-261600-
...SOUTHEAST COLORADO...

CITY           SKY/WX    TMP DP  RH WIND       PRES   REMARKS
PUEBLO         PTSUNNY   64  48  56 CALM      29.95F
LA JUNTA       CLOUDY    63  51  65 W6        29.92S
LAMAR          CLOUDY    64  53  67 CALM      29.86F
SPRINGFIELD      N/A     64  53  67 N17       29.87F
$$




USA.gov is the U.S. government's official web portal to all federal, state and local government web resources and services.